This is the latest recevied weather packets stored in our database for station/object KA0EGE. If no packets are shown the sender has not sent any weather packets the latest 10 day(s).
| Time | Temp. | Humidity | Pressure | Rain* | Wind** | Luminosity | Snow |
|---|---|---|---|---|---|---|---|
| 1777928743 | 25° C | 39% | 1017.7 hPa | 0 mm | - | 526 W/m² | - |
| 1777928439 | 25° C | 38% | 1017.8 hPa | 0 mm | - | 544 W/m² | - |
| 1777928137 | 25.56° C | 39% | 1018 hPa | 0 mm | - | 559 W/m² | - |
| 1777927835 | 25° C | 38% | 1017.9 hPa | 0 mm | - | 576 W/m² | - |
| 1777927533 | 25.56° C | 38% | 1018 hPa | 0 mm | - | 590 W/m² | - |
| 1777927232 | 25.56° C | 37% | 1018 hPa | 0 mm | - | 606 W/m² | - |
| 1777926929 | 25.56° C | 37% | 1017.9 hPa | 0 mm | - | 620 W/m² | - |
| 1777926627 | 25° C | 39% | 1017.9 hPa | 0 mm | - | 635 W/m² | - |
| 1777926322 | 25.56° C | 40% | 1017.8 hPa | 0 mm | - | 651 W/m² | - |
| 1777926019 | 25.56° C | 38% | 1018.1 hPa | 0 mm | - | 665 W/m² | - |
| 1777925716 | 25.56° C | 39% | 1018.1 hPa | 0 mm | - | 679 W/m² | - |
| 1777925414 | 25.56° C | 38% | 1018.1 hPa | 0 mm | - | 691 W/m² | - |
| 1777925110 | 25.56° C | 38% | 1018.2 hPa | 0 mm | - | 704 W/m² | - |
| 1777924807 | 25.56° C | 39% | 1018.2 hPa | 0 mm | - | 716 W/m² | - |
| 1777924503 | 25.56° C | 41% | 1018.3 hPa | 0 mm | - | 727 W/m² | - |
| 1777924200 | 25.56° C | 39% | 1018.4 hPa | 0 mm | - | 739 W/m² | - |
| 1777923896 | 25.56° C | 38% | 1018.3 hPa | 0 mm | - | 750 W/m² | - |
| 1777923591 | 26.11° C | 40% | 1018.4 hPa | 0 mm | - | 759 W/m² | - |
| 1777923289 | 26.11° C | 37% | 1018.5 hPa | 0 mm | - | 771 W/m² | - |
| 1777922988 | 25.56° C | 38% | 1018.7 hPa | 0 mm | - | 780 W/m² | - |
| 1777922684 | 26.67° C | 40% | 1018.7 hPa | 0 mm | - | 786 W/m² | - |
| 1777922383 | 26.11° C | 40% | 1018.4 hPa | 0 mm | - | 797 W/m² | - |
| 1777922081 | 26.67° C | 37% | 1018.5 hPa | 0 mm | - | 801 W/m² | - |
| 1777921776 | 26.67° C | 38% | 1018.6 hPa | 0 mm | - | 809 W/m² | - |
| 1777921472 | 27.22° C | 36% | 1018.7 hPa | 0 mm | - | 817 W/m² | - |
* Rain latest hour (hover to see other rain measurements)
** Current wind speed in m/s (hover to see current wind gust speed)